Wind_Speed
32 32 32 33 33 32 32 32 31 28 26 24 23 23 22 22 22 21 20 19 19 18 17 18 18 18 18 17 17 16 16 16 16 16 17 17 18 18 19 19 19 19 19 19
34 33 33 34 34 33 33 33 32 30 28 25 25 25 24 24 23 23 22 21 20 20 20 20 20 20 20 19 18 18 18 19 19 19 20 20 20 21 21 20 21 21 22 21
35 34 34 35 34 34 34 33 32 31 29 27 26 25 25 25 26 25 25 24 23 23 23 23 23 23 23 22 21 21 21 22 23 23 23 24 24 24 24 23 22 23 23 23
35 35 37 35 34 34 34 34 33 31 30 29 28 27 27 26 26 26 26 27 27 26 25 25 25 25 25 25 24 24 24 24 25 25 26 27 27 26 26 26 25 24 25 25
36 36 36 35 35 34 34 34 33 33 32 31 30 30 29 28 27 27 27 28 28 28 27 27 27 27 27 27 27 28 27 27 27 27 28 28 28 28 28 27 27 27 27 27
35 36 36 34 34 34 34 34 33 33 32 32 32 32 31 31 30 30 30 30 29 29 28 28 28 29 30 30 30 30 29 28 29 30 31 30 29 29 29 29 30 30 30 30
36 35 35 35 34 35 36 35 34 34 33 33 33 32 32 32 32 32 32 32 31 30 30 29 30 31 31 32 32 32 31 31 31 32 32 32 31 31 32 32 32 32 33 33
36 36 36 35 35 35 35 35 35 35 34 34 33 33 33 33 34 33 34 34 33 33 32 32 32 33 33 33 33 34 34 34 34 35 34 34 33 33 34 34 35 35 35 35
35 36 35 35 36 36 37 37 37 37 36 36 35 35 34 34 35 35 35 36 35 34 34 34 34 35 35 34 34 35 36 36 35 36 36 36 36 36 36 37 37 37 37 37
34 34 34 35 36 36 37 38 39 39 38 38 37 36 36 36 36 36 37 37 36 36 35 36 36 36 36 36 36 36 36 37 37 37 37 37 37 37 38 38 38 38 38 38
34 34 35 35 36 36 36 37 39 39 39 39 39 38 38 37 37 38 38 38 37 37 36 36 36 36 37 37 37 37 37 37 37 37 38 37 37 38 38 38 38 38 38 39
34 35 36 36 37 37 37 38 38 38 38 38 39 39 38 37 38 38 39 38 39 38 38 37 37 37 37 37 37 37 37 37 37 37 37 37 38 38 37 37 38 39 39 40
34 36 36 37 37 37 37 37 37 37 37 36 36 36 37 37 38 38 37 38 38 39 39 38 37 37 37 38 37 37 37 37 37 36 36 36 37 37 37 37 38 39 40 40
33 34 34 34 35 35 36 36 36 36 36 35 35 35 35 37 38 38 38 38 38 39 38 37 37 37 36 36 36 36 37 37 37 36 36 36 36 36 37 37 38 39 40 40
33 33 33 33 32 32 34 34 34 34 35 35 35 35 34 35 36 35 36 36 37 37 37 37 37 36 36 36 36 36 36 36 36 36 35 35 36 36 37 38 38 39 38 38
32 32 32 32 31 31 31 32 33 33 33 33 34 35 33 33 34 34 34 34 35 36 36 36 36 36 36 36 36 36 36 35 34 34 34 35 36 36 37 37 37 36 36 37
30 31 31 31 30 30 30 31 31 32 31 31 32 33 34 33 33 33 33 34 34 34 33 32 32 33 34 34 34 34 34 34 33 33 33 34 34 35 35 35 35 35 35 36
27 29 29 30 30 30 31 30 30 30 30 30 30 30 30 30 31 31 32 32 32 32 32 31 31 31 32 32 32 32 32 30 30 31 31 31 32 33 33 33 33 33 34 34
24 25 27 28 28 28 29 29 28 28 28 27 27 27 28 29 29 30 31 31 31 31 30 30 30 30 30 30 29 29 29 29 30 30 30 30 30 31 32 32 32 33 33 34
20 22 23 23 24 23 24 24 25 26 26 25 25 25 25 26 27 28 28 28 29 29 29 29 29 29 29 28 28 28 28 28 28 29 29 29 29 30 30 30 30 31 31 31
17 18 19 20 20 20 20 21 22 22 22 23 23 23 22 23 23 24 26 26 27 27 27 27 27 27 27 27 27 27 26 27 27 27 28 28 28 28 29 28 29 29 29 29
15 15 15 16 17 18 18 17 18 18 19 20 21 21 20 20 21 22 23 23 23 24 25 26 25 24 24 24 24 24 24 24 25 26 26 26 26 26 26 26 27 27 28 28
13 13 13 13 14 15 15 15 15 15 16 17 17 18 18 18 18 18 18 19 20 21 21 22 21 21 21 22 21 22 23 24 24 24 24 25 25 24 25 25 26 26 27 28
10 10 11 12 13 13 14 14 14 14 14 14 14 14 14 15 15 15 15 16 16 16 17 17 18 18 19 19 19 20 21 22 22 23 23 22 23 23 24 24 25 26 27 27
10 10 10 10 11 11 11 11 12 12 11 12 12 12 12 13 13 13 13 13 13 13 14 15 15 15 16 17 18 19 20 21 21 21 21 22 23 23 24 24 25 25 26 26
8 8 8 8 7 8 9 10 10 10 10 11 12 12 12 12 12 13 13 12 13 13 13 13 13 14 16 17 18 19 20 21 21 21 22 22 23 23 24 25 25 26 26 26
7 7 7 7 7 7 8 8 9 9 9 9 9 10 10 11 11 12 12 12 12 13 13 13 15 16 17 18 19 20 20 20 20 21 22 22 23 24 25 25 26 26 27 28
Wind_Direction
242 240 239 238 239 242 246 249 253 255 256 257 257 257 256 255 254 256 258 260 263 264 265 266 266 267 268 270 272 273 274 276 277 273 275 277 278 279 279 281 283 284 284 284
243 242 240 240 240 242 246 249 252 253 254 255 257 256 255 255 256 256 257 259 261 261 262 266 269 270 270 272 272 272 273 274 276 275 276 278 277 282 282 281 282 285 283 285
245 244 242 241 241 243 245 248 250 253 253 253 255 254 254 254 256 257 257 259 259 261 263 267 269 270 272 271 273 273 272 273 274 274 274 275 277 279 283 284 281 283 285 285
247 246 245 243 244 244 245 246 248 250 253 254 253 253 253 254 254 254 256 259 259 262 264 266 267 270 273 274 275 275 275 276 277 276 276 275 276 277 279 280 282 283 284 284
248 250 249 245 244 244 244 245 247 249 251 252 253 252 252 254 254 254 257 260 261 262 264 266 267 269 269 271 274 274 274 275 276 276 276 275 274 276 278 281 284 285 285 284
248 251 250 246 244 245 246 246 246 248 250 252 254 254 254 256 256 256 257 260 262 263 264 267 269 270 270 271 272 275 274 272 275 276 276 274 274 276 279 281 282 283 284 283
249 252 252 249 246 245 246 248 249 250 250 252 253 254 254 255 256 256 257 259 262 263 265 266 268 270 270 270 270 274 274 272 274 275 275 274 275 277 278 279 280 281 282 281
249 252 253 251 249 247 248 250 250 251 250 251 252 253 253 255 256 257 257 259 261 263 265 266 267 268 269 270 271 272 273 273 274 275 276 277 277 278 279 278 278 279 280 280
250 253 254 252 251 250 249 250 251 251 252 251 252 252 254 256 258 258 258 260 262 263 265 266 266 267 269 270 271 271 273 274 276 276 276 278 279 279 280 279 278 279 279 280
249 251 252 252 252 252 252 252 253 253 254 253 253 253 253 256 258 259 260 261 262 263 264 265 266 268 269 270 271 271 272 273 274 275 276 277 278 279 281 281 280 281 281 282
249 249 251 251 252 252 253 253 254 254 254 254 254 254 254 255 257 259 260 261 262 263 263 264 266 268 268 269 270 271 272 273 274 274 275 276 277 279 279 280 280 281 281 282
250 251 252 252 253 254 254 254 254 254 254 254 255 255 255 255 256 257 259 261 262 262 263 264 266 268 269 270 271 271 271 272 273 274 275 275 276 277 277 279 281 280 281 282
253 253 254 254 254 254 256 255 254 254 254 255 255 256 256 255 255 256 259 261 263 264 265 267 268 269 271 271 271 271 272 272 272 273 274 275 276 277 278 278 279 280 281 282
254 254 255 255 254 254 254 255 254 254 253 254 255 255 255 256 256 257 259 262 263 264 266 267 269 270 271 271 270 271 272 273 273 273 274 275 275 276 277 278 279 280 281 282
254 255 255 254 253 254 255 255 253 253 253 253 255 256 257 257 257 258 259 260 261 263 266 267 269 270 271 273 272 272 272 273 272 273 273 274 276 277 278 279 280 280 281 281
254 255 255 253 252 252 253 253 252 253 254 254 256 258 258 258 259 260 260 261 263 264 267 268 268 270 272 273 273 273 272 273 273 273 274 276 278 278 279 280 281 281 281 282
257 255 254 253 253 252 252 253 255 256 256 257 258 259 259 258 259 260 261 263 265 266 267 268 268 271 271 271 273 275 275 276 275 275 276 278 279 281 281 281 282 280 280 282
260 257 253 252 251 250 250 251 252 253 254 255 257 258 259 260 261 260 262 264 265 266 266 268 269 270 272 271 272 274 275 276 276 278 278 279 281 283 283 282 281 280 280 282
259 256 253 252 250 249 248 248 248 249 250 252 255 258 261 261 262 263 264 265 264 267 266 267 271 272 271 270 272 274 275 276 277 278 279 280 282 284 284 282 282 281 282 283
256 253 253 250 248 248 248 247 247 248 249 250 253 256 259 260 261 262 262 263 264 265 266 267 270 269 268 270 272 274 276 277 277 278 279 281 282 283 285 284 284 285 286 285
253 252 251 247 247 249 250 249 247 247 246 247 249 252 255 258 260 262 263 264 264 264 266 266 266 266 268 271 273 276 277 278 279 280 280 281 283 284 286 287 288 288 288 288
253 252 248 245 247 249 250 250 249 247 246 246 249 252 255 258 262 264 264 264 263 263 264 264 264 266 270 274 277 278 279 280 281 281 280 282 283 284 286 288 289 289 289 291
249 247 247 248 248 248 248 250 251 251 251 252 254 254 255 258 261 263 262 262 263 263 262 262 265 268 271 275 277 279 280 281 282 284 284 285 285 287 289 290 291 292 292 293
246 248 246 247 247 248 250 252 252 252 255 257 258 259 260 261 262 262 264 266 266 267 266 266 269 272 274 276 279 282 283 284 285 287 288 288 289 291 292 292 293 294 295 296
242 245 247 248 248 249 250 251 251 253 256 258 257 257 259 261 264 266 266 265 266 269 271 272 274 276 278 281 283 285 287 288 290 290 291 292 292 292 292 293 295 296 296 297
244 242 240 241 246 248 247 247 251 253 253 254 254 257 260 262 264 265 264 265 267 270 274 276 278 280 282 283 284 286 288 289 291 290 289 291 293 295 296 296 297 297 296 295
238 239 241 242 245 249 252 252 251 251 250 252 253 258 261 261 262 264 268 272 273 274 276 280 282 283 282 282 283 285 287 290 292 293 293 294 295 296 295 295 295 295 295 296
Height
5837 5840 5842 5845 5848 5850 5853 5855 5857 5859 5861 5864 5865 5866 5868 5869 5870 5871 5873 5873 5874 5874 5874 5874 5875 5875 5874 5875 5875 5875 5875 5875 5875 5874 5874 5873 5873 5872 5871 5870 5869 5868 5867 5866
5828 5832 5834 5837 5841 5843 5846 5848 5850 5852 5855 5857 5859 5860 5862 5863 5865 5866 5867 5868 5868 5869 5869 5869 5870 5870 5870 5870 5870 5870 5870 5870 5869 5869 5869 5868 5868 5867 5866 5864 5864 5863 5862 5861
5820 5823 5825 5829 5833 5836 5838 5840 5843 5845 5849 5851 5852 5854 5856 5857 5859 5860 5861 5862 5863 5863 5864 5864 5864 5865 5865 5865 5864 5864 5864 5864 5863 5863 5863 5862 5862 5861 5860 5859 5858 5857 5856 5855
5811 5815 5817 5824 5825 5828 5830 5833 5836 5838 5841 5843 5846 5847 5849 5851 5852 5853 5855 5855 5856 5857 5858 5858 5858 5858 5858 5858 5858 5858 5857 5857 5856 5856 5856 5856 5855 5855 5853 5852 5851 5850 5850 5849
5803 5805 5808 5813 5817 5819 5822 5825 5828 5830 5833 5835 5837 5839 5842 5843 5845 5846 5847 5848 5849 5850 5851 5851 5851 5851 5851 5851 5851 5851 5850 5850 5850 5849 5848 5848 5848 5847 5846 5845 5844 5844 5843 5841
5794 5796 5799 5806 5808 5811 5815 5816 5820 5822 5825 5827 5829 5831 5834 5835 5836 5838 5839 5840 5841 5842 5843 5843 5843 5843 5843 5843 5843 5843 5843 5843 5842 5841 5840 5840 5839 5839 5839 5838 5837 5836 5835 5834
5786 5787 5791 5796 5799 5802 5806 5809 5811 5813 5816 5818 5820 5823 5825 5826 5828 5829 5830 5831 5833 5833 5834 5835 5835 5835 5835 5835 5836 5835 5834 5834 5834 5833 5832 5831 5831 5831 5830 5830 5829 5828 5827 5825
5778 5780 5785 5787 5789 5792 5795 5799 5801 5803 5806 5808 5810 5813 5815 5817 5818 5820 5821 5822 5824 5824 5825 5826 5826 5826 5826 5826 5827 5826 5826 5825 5825 5823 5822 5821 5821 5821 5821 5820 5819 5819 5817 5816
5770 5774 5775 5777 5779 5782 5785 5788 5790 5793 5795 5798 5800 5802 5805 5807 5809 5810 5812 5813 5814 5815 5815 5816 5816 5816 5816 5817 5817 5817 5816 5816 5815 5813 5813 5812 5812 5811 5811 5810 5809 5808 5807 5805
5760 5762 5765 5767 5769 5772 5774 5777 5780 5783 5785 5788 5790 5792 5794 5796 5798 5800 5801 5803 5804 5805 5805 5806 5806 5806 5806 5807 5806 5806 5806 5806 5805 5804 5803 5802 5802 5801 5800 5799 5798 5797 5796 5794
5751 5753 5755 5758 5760 5762 5764 5767 5769 5772 5774 5777 5779 5782 5784 5786 5787 5789 5790 5792 5793 5794 5795 5795 5795 5796 5796 5796 5796 5796 5796 5795 5794 5793 5792 5792 5791 5790 5789 5788 5786 5785 5784 5783
5742 5744 5746 5748 5750 5752 5754 5756 5758 5761 5763 5765 5768 5771 5773 5775 5776 5778 5779 5780 5782 5783 5784 5784 5785 5785 5785 5785 5785 5784 5784 5784 5783 5782 5781 5781 5780 5779 5777 5776 5775 5774 5773 5772
5732 5734 5735 5738 5739 5741 5743 5745 5747 5750 5752 5755 5757 5760 5762 5764 5765 5766 5768 5769 5770 5772 5773 5774 5774 5774 5773 5773 5773 5773 5773 5772 5772 5771 5770 5769 5768 5767 5766 5765 5763 5762 5761 5760
5722 5723 5725 5728 5730 5731 5733 5735 5737 5740 5742 5745 5747 5749 5750 5752 5754 5755 5757 5758 5759 5760 5761 5762 5763 5762 5762 5762 5761 5761 5761 5761 5760 5759 5759 5757 5756 5755 5754 5753 5752 5750 5749 5747
5713 5714 5716 5718 5720 5722 5723 5725 5727 5730 5732 5735 5737 5738 5740 5742 5744 5745 5746 5747 5748 5749 5750 5751 5751 5751 5751 5751 5751 5750 5750 5749 5748 5747 5747 5746 5744 5743 5742 5741 5740 5738 5737 5736
5704 5705 5707 5709 5711 5713 5714 5716 5718 5721 5723 5725 5727 5729 5730 5732 5733 5735 5736 5737 5738 5739 5739 5740 5740 5740 5740 5740 5740 5739 5738 5737 5736 5736 5735 5734 5733 5732 5731 5729 5727 5726 5725 5724
5694 5696 5697 5699 5701 5703 5705 5707 5709 5711 5714 5716 5717 5719 5720 5722 5724 5725 5727 5727 5728 5728 5729 5729 5730 5730 5730 5730 5729 5728 5727 5726 5725 5725 5724 5723 5722 5721 5719 5717 5716 5715 5714 5713
5684 5685 5687 5689 5691 5693 5696 5698 5700 5702 5705 5707 5708 5710 5711 5713 5715 5716 5717 5718 5718 5718 5719 5719 5720 5720 5720 5719 5719 5718 5716 5715 5715 5715 5714 5713 5712 5710 5708 5707 5705 5704 5703 5702
5675 5676 5678 5679 5682 5684 5687 5689 5692 5694 5696 5699 5700 5702 5703 5705 5706 5707 5708 5708 5709 5709 5709 5710 5710 5710 5710 5710 5709 5709 5708 5707 5706 5706 5705 5704 5702 5701 5699 5697 5695 5694 5693 5692
5668 5669 5670 5672 5674 5677 5679 5682 5684 5687 5689 5691 5693 5694 5696 5697 5697 5698 5699 5699 5700 5701 5701 5701 5701 5702 5702 5701 5701 5700 5699 5698 5698 5697 5696 5695 5693 5692 5690 5688 5686 5684 5683 5682
5663 5664 5665 5667 5670 5672 5674 5676 5678 5680 5683 5685 5686 5688 5689 5690 5691 5691 5691 5691 5692 5692 5693 5693 5693 5693 5693 5693 5693 5692 5691 5690 5689 5688 5687 5686 5685 5683 5681 5680 5678 5676 5674 5673
5659 5661 5662 5664 5666 5668 5669 5671 5673 5675 5677 5679 5680 5682 5683 5684 5684 5684 5684 5684 5684 5685 5686 5686 5686 5686 5686 5686 5685 5684 5683 5682 5682 5680 5679 5678 5676 5675 5674 5672 5670 5668 5666 5664
5657 5658 5660 5662 5663 5665 5666 5668 5670 5671 5673 5674 5675 5677 5678 5678 5679 5679 5679 5679 5679 5679 5679 5679 5680 5680 5680 5679 5679 5678 5677 5676 5675 5674 5672 5671 5670 5668 5666 5664 5662 5661 5659 5657
5655 5657 5658 5659 5661 5662 5664 5665 5666 5668 5669 5671 5672 5672 5673 5674 5674 5674 5674 5674 5674 5674 5674 5674 5675 5674 5674 5673 5673 5672 5671 5670 5669 5667 5666 5664 5662 5661 5659 5657 5656 5654 5651 5649
5654 5655 5656 5657 5658 5660 5661 5662 5664 5665 5666 5667 5668 5669 5670 5670 5670 5670 5670 5670 5671 5671 5670 5670 5670 5669 5669 5668 5667 5666 5665 5664 5663 5661 5660 5658 5656 5654 5652 5650 5648 5646 5644 5641
5652 5653 5654 5655 5656 5657 5659 5660 5661 5662 5663 5664 5665 5665 5666 5666 5666 5666 5667 5667 5667 5666 5666 5666 5665 5665 5664 5664 5663 5661 5660 5659 5657 5655 5654 5652 5650 5648 5646 5643 5641 5639 5636 5634
5651 5652 5653 5654 5655 5656 5657 5658 5659 5660 5660 5661 5662 5662 5662 5662 5663 5663 5663 5663 5663 5662 5662 5662 5661 5660 5659 5659 5657 5656 5654 5653 5651 5649 5647 5645 5643 5641 5639 5636 5634 5632 5629 5626